Location: Unspecified
(47.4992°N, 121.7766°W)
Time: 17:24:21
(UTC-08:00)

Cosmos 2058 - Visible Passes

Search period start: 22 January 2019 00:00
Search period end: 01 February 2019 00:00
Orbit: 562 x 585 km, 82.5° (Epoch: 22 January)

Date Brightness Start Highest point End Pass type
(mag) Time Alt. Az. Time Alt. Az. Time Alt. Az.
22 Jan 4.6 05:46:01 10° N 05:49:44 33° ENE 05:53:27 10° SE visible
22 Jan 5.5 19:49:39 10° SSW 19:50:10 13° SSW 19:50:10 13° SSW visible
23 Jan 4.1 05:48:57 10° N 05:52:52 42° ENE 05:56:46 10° SSE visible
23 Jan 4.7 18:17:16 10° SE 18:18:24 15° ESE 18:18:24 15° ESE visible
23 Jan 5.0 19:52:54 10° SSW 19:54:42 23° SW 19:54:42 23° SW visible
24 Jan 3.6 05:51:55 10° N 05:55:58 55° ENE 05:59:59 10° SSE visible
24 Jan 4.0 18:19:50 10° SE 18:22:59 24° E 18:22:59 24° E visible
24 Jan 4.7 19:56:14 10° SW 19:59:17 30° W 19:59:17 30° W visible
25 Jan 3.0 05:54:58 10° N 05:59:04 73° E 06:03:09 10° SSE visible
25 Jan 3.6 18:22:31 10° SSE 18:26:09 31° E 18:27:34 24° NE visible
25 Jan 5.0 19:59:40 10° SW 20:03:06 25° WNW 20:03:52 23° NW visible
26 Jan 6.2 04:23:56 10° NE 04:24:35 10° ENE 04:25:13 10° ENE visible
26 Jan 2.8 05:58:01 10° N 06:02:08 85° W 06:06:14 10° S visible
26 Jan 3.3 18:25:19 10° SSE 18:29:10 40° E 18:32:08 16° NNE visible
26 Jan 5.4 20:03:12 10° WSW 20:06:16 20° WNW 20:08:25 14° NNW visible
27 Jan 6.0 04:25:48 10° NE 04:27:48 13° ENE 04:29:48 10° E visible
27 Jan 2.8 06:01:07 10° NNW 06:05:11 65° W 06:09:15 10° S visible
27 Jan 3.0 18:28:11 10° S 18:32:11 52° E 18:36:13 10° NNE visible
27 Jan 5.8 20:06:53 10° WSW 20:09:27 16° WNW 20:12:02 10° NNW visible
28 Jan 5.7 04:28:20 10° NNE 04:31:01 17° ENE 04:33:40 10° ESE visible
28 Jan 3.0 06:04:16 10° NNW 06:08:14 49° W 06:12:10 10° SSW visible
28 Jan 2.8 18:31:08 10° S 18:35:14 69° E 18:39:21 10° NNE visible
28 Jan 6.0 20:10:50 10° W 20:12:40 13° WNW 20:14:29 10° NW visible
29 Jan 5.4 04:31:45 13° NNE 04:34:11 21° ENE 04:37:19 10° ESE visible
29 Jan 3.4 06:08:01 13° NNW 06:11:15 37° W 06:15:02 10° SSW visible
29 Jan 2.8 18:34:10 10° S 18:38:18 90° W 18:42:26 10° N visible
30 Jan 5.0 04:35:54 21° NE 04:37:21 26° ENE 04:40:49 10° SE visible
30 Jan 3.7 06:12:11 19° NW 06:14:15 29° W 06:17:48 10° SSW visible
30 Jan 3.2 18:37:16 10° SSW 18:41:22 69° W 18:45:29 10° N visible
31 Jan 4.5 04:40:13 33° ENE 04:40:30 33° ENE 04:44:14 10° SE visible
31 Jan 4.0 06:16:30 21° WNW 06:17:14 23° W 06:20:27 10° SW visible
31 Jan 3.7 18:40:27 10° SSW 18:44:27 52° WNW 18:48:30 10° N visible
